This demonstration page uses our WeatherBlox Daily Observations layout. Learn more.

Left ArrowRight Arrow

31.84235, -102.49876

Hourly Observations for June 22, 2022

Temp ( °F °C ) Dew Point ( °F °C ) Humidity (%) Winds ( mph kmh ) Pressure ( in mb ) Visibility ( mi km ) Precip ( " mm )
12:53 am 00:53 Mostly Clear 85 29.4 52 11.1 32 32 S 12 19 30.01 1016 10 16 0.00 0.00
1:53 am 01:53 Clear 83 28.3 53 11.7 36 36 S 10 17 30.00 1016 10 16 0.00 0.00
2:53 am 02:53 Clear 81 27.2 53 11.7 38 38 SSE 8 13 30.00 1016 10 16 0.00 0.00
3:53 am 03:53 Clear 78 25.6 53 11.7 42 42 SSE 7 11 30.01 1016 10 16 0.00 0.00
4:53 am 04:53 Clear 78 25.6 54 12.2 43 43 SSE 8 13 30.01 1016 10 16 0.00 0.00
5:53 am 05:53 Clear 77 25 55 12.8 47 47 S 8 13 30.02 1017 10 16 0.00 0.00
6:53 am 06:53 Sunny 75 23.9 58 14.4 55 55 S 8 13 30.04 1017 10 16 0.00 0.00
7:53 am 07:53 Sunny 77 25 60 15.6 56 56 S 7 11 30.05 1018 10 16 0.00 0.00
8:53 am 08:53 Sunny 80 26.7 61 16.1 52 52 S 13 20 30.07 1018 10 16 0.00 0.00
9:53 am 09:53 Sunny 84 28.9 60 15.6 44 44 S 12 19 30.07 1018 10 16 0.00 0.00
10:53 am 10:53 Sunny 86 30 59 15 40 40 S 13 20 30.07 1018 10 16 0.00 0.00
11:53 am 11:53 Sunny 89 31.7 56 13.3 33 33 SE 13 20 30.05 1018 10 16 0.00 0.00
12:53 pm 12:53 Sunny 91 32.8 55 12.8 30 30 SSE 15 24 30.04 1017 10 16 0.00 0.00
1:53 pm 13:53 Sunny 93 33.9 52 11.1 25 25 SSE 12 19 30.01 1016 10 16 0.00 0.00
2:53 pm 14:53 Sunny 94 34.4 55 12.8 27 27 SSE 13 20 29.99 1016 10 16 0.00 0.00
3:53 pm 15:53 Mostly Sunny 97 36.1 53 11.7 23 23 S 18 30 29.96 1015 10 16 0.00 0.00
4:53 pm 16:53 Sunny 96 35.6 51 10.6 22 22 S 15 24 29.95 1014 10 16 0.00 0.00
5:53 pm 17:53 Sunny 96 35.6 50 10 21 21 SE 9 15 29.93 1014 10 16 0.00 0.00
6:53 pm 18:53 Mostly Sunny 95 35 51 10.6 23 23 SSE 13 20 29.92 1013 10 16 0.00 0.00
7:53 pm 19:53 Mostly Sunny 93 33.9 53 11.7 26 26 S 13 20 29.92 1013 10 16 0.00 0.00
8:53 pm 20:53 Sunny 91 32.8 53 11.7 27 27 SSE 12 19 29.92 1013 10 16 0.00 0.00
9:53 pm 21:53 Clear 89 31.7 55 12.8 31 31 S 12 19 29.92 1013 10 16 0.00 0.00
10:53 pm 22:53 Clear 88 31.1 57 13.9 35 35 S 12 19 29.94 1014 10 16 0.00 0.00
11:53 pm 23:53 Clear 86 30 57 13.9 37 37 S 9 15 29.95 1014 10 16 0.00 0.00

Powered by AerisWeather